Location: Risskov
(56.1972°N, 10.2480°E)
Time: 23:37:58
(UTC+00:00)

Lacrosse 5 rocket - Pass Details

Date: 05 July 2020
Orbit: 465 x 631 km, 57.0° (Epoch: 14 August)

Event Time Altitude Azimuth Distance (km) Brightness Sun altitude
Rises 21:14:17 0° 270° (W) 2,793 5.4 -6.5°
Reaches altitude 10° 21:16:36 10° 272° (W) 1,866 4.5 -6.7°
Maximum altitude 21:20:50 78° 359° (N) 561 1.5 -6.9°
Drops below altitude 10° 21:24:49 10° 87° (E) 1,761 3.7 -7.2°
Sets 21:26:57 0° 88° (E) 2,621 4.5 -7.3°
